When you browse on this site, cookies collect data to enhance your experience and personalize the content and advertising you see.
Visit our Privacy Policy to learn more. By continuing to use the site, you agree to this use of cookies and data.
  • en France
  • Liste des pays
  • À 7 jours
  • Température de l'eau
  • Carte satellitaire
  • Carte météo
  • Widgets météo
  • user-avatar
    Se connecter

    Météo par heure à Paris

    Ce jour, 27 Mai, Lundi

    Heure Température Précipitation Vent Pression Humidité
    00:00 +16°C° 0 mm 3 m/s 755 mmHg 81%
    01:00 +16°C° 0.1 mm 3 m/s 755 mmHg 83%
    02:00 +16°C° 0.1 mm 3 m/s 755 mmHg 84%
    03:00 +16°C° 0.1 mm 3 m/s 754 mmHg 86%
    04:00 +16°C° 0 mm 3 m/s 754 mmHg 85%
    05:00 +16°C° 0 mm 3 m/s 754 mmHg 84%
    06:00 +16°C° 0 mm 3 m/s 754 mmHg 83%
    07:00 +16°C° 0 mm 3 m/s 754 mmHg 77%
    08:00 +17°C° 0 mm 3 m/s 754 mmHg 72%
    09:00 +17°C° 0 mm 3 m/s 754 mmHg 67%
    10:00 +18°C° 0 mm 3 m/s 754 mmHg 62%
    11:00 +19°C° 0 mm 3 m/s 754 mmHg 57%
    12:00 +20°C° 0 mm 3 m/s 754 mmHg 52%
    13:00 +21°C° 0 mm 4 m/s 754 mmHg 51%
    14:00 +21°C° 0 mm 4 m/s 754 mmHg 51%
    15:00 +21°C° 0 mm 5 m/s 754 mmHg 50%
    16:00 +20°C° 0 mm 5 m/s 753 mmHg 51%
    17:00 +19°C° 0 mm 4 m/s 753 mmHg 53%
    18:00 +18°C° 0 mm 4 m/s 753 mmHg 54%
    19:00 +17°C° 0 mm 4 m/s 754 mmHg 58%
    20:00 +15°C° 0 mm 4 m/s 754 mmHg 63%
    21:00 +14°C° 0 mm 3 m/s 754 mmHg 67%
    22:00 +13°C° 0 mm 4 m/s 754 mmHg 69%
    23:00 +13°C° 0 mm 4 m/s 754 mmHg 72%

    Demain, 28 Mai, Mardi

    Heure Température Précipitation Vent Pression Humidité
    00:00 +12°C° 0 mm 4 m/s 754 mmHg 74%
    01:00 +12°C° 0 mm 4 m/s 754 mmHg 77%
    02:00 +11°C° 0 mm 4 m/s 753 mmHg 79%
    03:00 +11°C° 0 mm 4 m/s 753 mmHg 81%
    04:00 +11°C° 0 mm 4 m/s 753 mmHg 80%
    05:00 +11°C° 0 mm 4 m/s 753 mmHg 79%
    06:00 +11°C° 0 mm 4 m/s 753 mmHg 78%
    07:00 +13°C° 0.1 mm 4 m/s 754 mmHg 73%
    08:00 +14°C° 0.1 mm 5 m/s 754 mmHg 67%
    09:00 +15°C° 0.1 mm 5 m/s 754 mmHg 62%
    10:00 +16°C° 0.3 mm 5 m/s 754 mmHg 58%
    11:00 +17°C° 0.3 mm 5 m/s 754 mmHg 54%
    12:00 +17°C° 0.3 mm 5 m/s 754 mmHg 51%
    13:00 +17°C° 0.2 mm 5 m/s 754 mmHg 51%
    14:00 +17°C° 0.2 mm 5 m/s 754 mmHg 51%
    15:00 +19°C° 0.2 mm 5 m/s 755 mmHg 51%
    16:00 +17°C° 0.1 mm 5 m/s 755 mmHg 54%
    17:00 +16°C° 0.1 mm 5 m/s 755 mmHg 58%
    18:00 +17°C° 0.1 mm 4 m/s 756 mmHg 61%
    19:00 +15°C° 0 mm 4 m/s 756 mmHg 65%
    20:00 +14°C° 0 mm 3 m/s 757 mmHg 70%
    21:00 +13°C° 0 mm 3 m/s 758 mmHg 74%
    22:00 +12°C° 0 mm 3 m/s 758 mmHg 76%
    23:00 +13°C° 0 mm 2 m/s 758 mmHg 79%

    Après-demain, 29 Mai, Mercredi

    Heure Température Précipitation Vent Pression Humidité
    00:00 +12°C° 0 mm 2 m/s 758 mmHg 81%
    01:00 +12°C° 0 mm 2 m/s 759 mmHg 82%
    02:00 +12°C° 0 mm 2 m/s 759 mmHg 83%
    03:00 +11°C° 0 mm 1 m/s 759 mmHg 84%
    04:00 +12°C° 0 mm 1 m/s 759 mmHg 82%
    05:00 +12°C° 0 mm 1 m/s 759 mmHg 80%
    06:00 +12°C° 0 mm 1 m/s 760 mmHg 78%
    07:00 +14°C° 0 mm 2 m/s 760 mmHg 73%
    08:00 +15°C° 0 mm 2 m/s 760 mmHg 67%
    09:00 +16°C° 0 mm 3 m/s 760 mmHg 61%
    10:00 +16°C° 0 mm 3 m/s 760 mmHg 61%
    11:00 +15°C° 0 mm 4 m/s 760 mmHg 61%
    12:00 +15°C° 0 mm 4 m/s 760 mmHg 61%
    13:00 +14°C° 0.4 mm 4 m/s 760 mmHg 66%
    14:00 +13°C° 0.4 mm 4 m/s 759 mmHg 71%
    15:00 +13°C° 0.4 mm 5 m/s 759 mmHg 75%
    16:00 +13°C° 0.8 mm 4 m/s 759 mmHg 79%
    17:00 +13°C° 0.8 mm 4 m/s 759 mmHg 83%
    18:00 +13°C° 0.8 mm 4 m/s 759 mmHg 87%
    19:00 +13°C° 0.1 mm 4 m/s 759 mmHg 89%
    20:00 +14°C° 0.1 mm 3 m/s 759 mmHg 90%
    21:00 +14°C° 0.1 mm 3 m/s 759 mmHg 91%
    22:00 +14°C° 0 mm 3 m/s 760 mmHg 91%
    23:00 +14°C° 0 mm 3 m/s 760 mmHg 90%

    30 Mai, Jeudi

    Heure Température Précipitation Vent Pression Humidité
    00:00 +14°C° 0 mm 3 m/s 760 mmHg 90%
    01:00 +14°C° 0 mm 3 m/s 760 mmHg 90%
    02:00 +14°C° 0 mm 3 m/s 760 mmHg 90%
    03:00 +13°C° 0 mm 3 m/s 760 mmHg 90%
    04:00 +13°C° 0 mm 3 m/s 760 mmHg 89%
    05:00 +14°C° 0 mm 3 m/s 761 mmHg 88%
    06:00 +14°C° 0 mm 3 m/s 761 mmHg 87%
    07:00 +16°C° 0 mm 3 m/s 761 mmHg 84%
    08:00 +16°C° 0 mm 3 m/s 762 mmHg 82%
    09:00 +17°C° 0 mm 3 m/s 762 mmHg 79%
    10:00 +18°C° 0.1 mm 3 m/s 762 mmHg 77%
    11:00 +18°C° 0.1 mm 3 m/s 762 mmHg 74%
    12:00 +19°C° 0.1 mm 3 m/s 763 mmHg 71%
    13:00 +19°C° 0 mm 3 m/s 763 mmHg 71%
    14:00 +19°C° 0 mm 3 m/s 763 mmHg 70%
    15:00 +20°C° 0 mm 3 m/s 763 mmHg 70%
    16:00 +19°C° 0 mm 3 m/s 763 mmHg 72%
    17:00 +19°C° 0 mm 2 m/s 763 mmHg 75%
    18:00 +19°C° 0 mm 2 m/s 763 mmHg 77%
    19:00 +18°C° 0 mm 2 m/s 763 mmHg 80%
    20:00 +17°C° 0 mm 2 m/s 764 mmHg 83%
    21:00 +17°C° 0 mm 2 m/s 764 mmHg 85%
    22:00 +16°C° 0 mm 2 m/s 764 mmHg 86%
    23:00 +15°C° 0 mm 2 m/s 764 mmHg 87%

    31 Mai, Vendredi

    Heure Température Précipitation Vent Pression Humidité
    00:00 +15°C° 0 mm 2 m/s 764 mmHg 87%
    01:00 +14°C° 0 mm 2 m/s 764 mmHg 87%
    02:00 +14°C° 0 mm 2 m/s 764 mmHg 88%
    03:00 +13°C° 0 mm 2 m/s 764 mmHg 88%
    04:00 +14°C° 0 mm 2 m/s 764 mmHg 87%
    05:00 +14°C° 0 mm 2 m/s 765 mmHg 87%
    06:00 +14°C° 0 mm 2 m/s 765 mmHg 86%
    07:00 +15°C° 0 mm 2 m/s 765 mmHg 83%
    08:00 +16°C° 0 mm 2 m/s 765 mmHg 79%
    09:00 +17°C° 0 mm 2 m/s 765 mmHg 76%
    10:00 +18°C° 0 mm 2 m/s 765 mmHg 72%
    11:00 +19°C° 0 mm 2 m/s 765 mmHg 69%
    12:00 +20°C° 0 mm 2 m/s 765 mmHg 65%
    13:00 +20°C° 0 mm 2 m/s 765 mmHg 64%
    14:00 +21°C° 0 mm 2 m/s 765 mmHg 64%
    15:00 +21°C° 0 mm 2 m/s 765 mmHg 64%
    16:00 +21°C° 0 mm 2 m/s 765 mmHg 66%
    17:00 +21°C° 0 mm 2 m/s 765 mmHg 68%
    18:00 +21°C° 0 mm 1 m/s 765 mmHg 70%
    19:00 +20°C° 0 mm 1 m/s 765 mmHg 74%
    20:00 +19°C° 0 mm 1 m/s 765 mmHg 78%
    21:00 +18°C° 0 mm 1 m/s 765 mmHg 82%
    22:00 +18°C° 0 mm 1 m/s 765 mmHg 84%
    23:00 +15°C° 0 mm 0 m/s 765 mmHg 86%

    1 Juin, Samedi

    Heure Température Précipitation Vent Pression Humidité
    00:00 +15°C° 0 mm 0 m/s 765 mmHg 88%
    01:00 +15°C° 0 mm 0 m/s 765 mmHg 90%
    02:00 +14°C° 0 mm 0 m/s 764 mmHg 91%
    03:00 +14°C° 0 mm 0 m/s 764 mmHg 92%
    04:00 +14°C° 0 mm 0 m/s 764 mmHg 90%
    05:00 +15°C° 0 mm 0 m/s 764 mmHg 88%
    06:00 +16°C° 0 mm 0 m/s 764 mmHg 86%
    07:00 +17°C° 0 mm 0 m/s 764 mmHg 81%
    08:00 +20°C° 0 mm 1 m/s 764 mmHg 75%
    09:00 +21°C° 0 mm 1 m/s 764 mmHg 70%
    10:00 +22°C° 0 mm 1 m/s 764 mmHg 67%
    11:00 +23°C° 0 mm 1 m/s 764 mmHg 65%
    12:00 +23°C° 0 mm 1 m/s 764 mmHg 62%
    13:00 +24°C° 0 mm 1 m/s 764 mmHg 60%
    14:00 +24°C° 0 mm 1 m/s 763 mmHg 59%
    15:00 +25°C° 0 mm 1 m/s 763 mmHg 57%
    16:00 +25°C° 0 mm 1 m/s 763 mmHg 60%
    17:00 +24°C° 0 mm 2 m/s 763 mmHg 62%
    18:00 +24°C° 0 mm 2 m/s 763 mmHg 65%
    19:00 +23°C° 0 mm 1 m/s 763 mmHg 70%
    20:00 +22°C° 0 mm 1 m/s 763 mmHg 75%
    21:00 +20°C° 0 mm 1 m/s 763 mmHg 80%
    22:00 +20°C° 0 mm 1 m/s 763 mmHg 82%
    23:00 +19°C° 0 mm 1 m/s 763 mmHg 84%
    Voir plus